This is the latest recevied weather packets stored in our database for station/object JF2ZGN-13. If no packets are shown the sender has not sent any weather packets the latest 10 day(s).
| Time | Temp. | Humidity | Pressure | Rain* | Wind** | Luminosity | Snow |
|---|---|---|---|---|---|---|---|
| 1778035066 | 11.11° C | 73% | 912.9 hPa | 0 mm | - | - | - |
| 1778034465 | 11.11° C | 72% | 912.9 hPa | 0 mm | - | - | - |
| 1778033864 | 11.11° C | 74% | 913 hPa | 0 mm | - | - | - |
| 1778033263 | 10.56° C | 75% | 913.1 hPa | 0 mm | - | - | - |
| 1778032663 | 10.56° C | 73% | 913.2 hPa | 0 mm | - | - | - |
| 1778032062 | 10.56° C | 74% | 913.4 hPa | 0 mm | - | - | - |
| 1778031462 | 10.56° C | 76% | 913.5 hPa | 0 mm | - | - | - |
| 1778030861 | 10.56° C | 75% | 913.5 hPa | 0 mm | - | - | - |
| 1778030262 | 10.56° C | 75% | 913.6 hPa | 0 mm | - | - | - |
| 1778029661 | 10.56° C | 74% | 913.5 hPa | 0 mm | - | - | - |
| 1778029058 | 10° C | 73% | 913.9 hPa | 0 mm | - | - | - |
| 1778028458 | 10° C | 74% | 913.6 hPa | 0 mm | - | - | - |
| 1778027858 | 10° C | 74% | 913.6 hPa | 0 mm | - | - | - |
| 1778027258 | 10° C | 82% | 913.8 hPa | 0 mm | - | - | - |
| 1778026658 | 10.56° C | 82% | 913.8 hPa | 0 mm | - | - | - |
| 1778026057 | 10° C | 74% | 913.8 hPa | 0 mm | - | - | - |
| 1778025456 | 10° C | 82% | 913.6 hPa | 0 mm | - | - | - |
| 1778024855 | 10° C | 81% | 913.8 hPa | 0 mm | - | - | - |
| 1778024255 | 10° C | 81% | 913.9 hPa | 0 mm | - | - | - |
| 1778023655 | 10° C | 81% | 913.9 hPa | 0 mm | - | - | - |
| 1778023054 | 10° C | 81% | 913.6 hPa | 0 mm | - | - | - |
| 1778022454 | 9.44° C | 81% | 913.6 hPa | 0 mm | - | - | - |
| 1778021853 | 9.44° C | 81% | 913.3 hPa | 0 mm | - | - | - |
| 1778021252 | 9.44° C | 82% | 913.2 hPa | 0 mm | - | - | - |
| 1778020652 | 9.44° C | 82% | 913.1 hPa | 0 mm | - | - | - |
* Rain since midnight (hover to see other rain measurements)
** Current wind speed in m/s (hover to see current wind gust speed)